Tracking 33404 objects as of 6-Mar-2026
HD Live streaming from Space Station
objects crossing your sky now

COSMOS 1289

Track COSMOS 1289 now!
10-day predictions
COSMOS 1289 is classified as:


NORAD ID: 12638
Int'l Code: 1981-074C
Perigee: 1,432.1 km
Apogee: 1,471.8 km
Inclination: 74.0 °
Period: 114.8 minutes
Semi major axis: 7822 km
RCS: 0.7098 m2 (medium)
Launch date: August 6, 1981
Source: Commonwealth of Independent States (former USSR) (CIS)
Launch site: PLESETSK MISSILE AND SPACE COMPLEX (PKMTR)
Your satellite tracking list
Your tracking list is empty




NASA's NSSDC Master Catalog

Two Line Element Set (TLE):
1 12638U 81074C   26065.04622755 -.00000006  00000-0  64976-4 0  9993
2 12638  74.0314 281.8366 0025406 244.8312 187.9817 12.54723219 41851
Source of the keplerian elements: AFSPC